NOAA 16 DEB, 41058

Orbit data source: Space-Track

NOAA 16 DEB, 41058 is space debris in SSO originally from a launch on Thu, 21 Sep 2000 UTC launched from the Air Force Western Test Range (AFWTR). Debris objects in space refer to the collection of defunct objects orbiting the Earth. Examples of debris include non-operational satellites, rocket bodies, and fragments generated from explosions, collisions, or faulty payload assembly.

Loading next visibility...
Identifier
41058, 2000-055R
Orbit
SSO
Country
Flag of USUS
Related business
Manufacturer
Unknown
Mission
Spacecraft
Bus & Motor
Unknown
Mass
Unknown
Launch date (UTC)
2000-09-21 (25 years ago)
Launch vehicle
Unknown
Launch site
Air Force Western Test Range (AFWTR)
Object type
Payload
Rocket body
Debris
Shape & HBR
Unknown shape, 0.1 m
Radar Cross Section
Small (<0.1 m²)

Expand to show TLE details & history
Last TLE update: 5 hours ago

TLE from 5 hours ago
0 NOAA 16 DEB
1 41058U 00055R   25292.93480339  .00001807  00000-0  10000-2 0  9996
2 41058  98.5871 295.0682 0024432 111.1737 249.2050 14.12377664509014
Epoch: 2025-10-19T22:26Z
TLE epoch observation values (Epoch: 2025-10-19T22:26:07.012Z)
Latitude
Longitude
-70.10536°
Altitude
860.464 km
Speed
7.419 km/s
True Right ascension
19h 40m 16s
True Declination
0° 00' 00"
Sunlit
Object was in daylight at epoch
Visualization orbit readout
Latitude
Unknown
Longitude
Unknown
Altitude
Unknown
Speed
Unknown
Apparent Right ascension
Unknown
Apparent Declination
Unknown
Sunlit
N/A
Visualization observer readout
Local Sidereal Time
22:50:44
Azimuth
Unknown
Elevation
Unknown
Doppler factor
Unknown
Orbital elements
Apogee altitude
866.066 km
Perigee altitude
830.754 km
Semi-major axis
7,226.547 km
Eccentricity
0.00244
Inclination
98.5871°
RAAN
295.0682°
Arg. of periapsis
111.1737°
True anomaly
248.94355°
Mean anomaly
249.205°
Eccentric anomaly
249.07425°
Mean motion
3.53303 °/min
Orbital period
101.9 mins
BSTAR
0.001
Loading maneuver chart data...
Computing Atmospheric mass density...

Documentation

Showing up to 5 results
|